Regional Weather Roundup
Issued by NWS

Home | Current Version | Previous Version | Graphics & Text | Print | Product List | Glossary On
Versions: 1 2 3 4 5 6 7 8 9 10 11 12 13 14 15 16 17 18 19 20 21 22 23 24 25 26 27 28 29 30 31 32 33 34 35 36 37 38 39 40 41 42 43 44 45 46 47 48 49 50
000
ASUS43 KLSX 272157
RWRMO

WEATHER SUMMARY FOR MISSOURI
NATIONAL WEATHER SERVICE SPRINGFIELD MO
500 PM CDT SAT AUG 27 2016

NOTE: "FAIR" INDICATES FEW OR NO CLOUDS BELOW 12,000 FEET WITH NO
       SIGNIFICANT WEATHER AND/OR OBSTRUCTIONS TO VISIBILITY.
       CURRENT SKY AND/OR WEATHER CONDITIONS ARE NOT AVAILABLE FOR
       CHILLICOTHE AND FARMINGTON.

MOZ001>031-035>038-043-044-053-054-272300-
...NORTHERN AND WESTERN MISSOURI...

CITY           SKY/WX    TMP DP  RH WIND       PRES   REMARKS
KANSAS CTY INT MOSUNNY   86  70  58 S3        29.99F HX  90
LEE`S SUMMIT   MOSUNNY   87  71  58 SW12      30.00F HX  93
ST JOSEPH      SUNNY     85  70  60 SW6       29.99S

$$
MOZ066>068-077>081-088>096-101>105-272300-
...SOUTHWEST MISSOURI...

CITY           SKY/WX    TMP DP  RH WIND       PRES   REMARKS
SPRINGFIELD    CLOUDY    88  66  48 W7        30.02F HX  90
JOPLIN         SUNNY     88  71  57 SE7       30.00F HX  94
BRANSON        PTSUNNY   82  72  69 S10       30.05F

$$
MOZ032>034-039>042-045>050-055>058-069>072-272300-
...CENTRAL MISSOURI...

CITY           SKY/WX    TMP DP  RH WIND       PRES   REMARKS
COLUMBIA       NOT AVBL
JEFFERSON CITY CLOUDY    87  71  58 E5        30.00S HX  93
ROLLA          MOSUNNY   86  71  60 SE5       30.02F HX  91
SEDALIA        MOSUNNY   87  70  56 SW6       30.02F HX  92

$$
MOZ051-052-059>065-272300-
...EAST CENTRAL MISSOURI...

CITY           SKY/WX    TMP DP  RH WIND       PRES   REMARKS
ST LOUIS INTL  PTSUNNY   90  70  51 S6        30.02S HX  95

$$
MOZ072>076-082>087-097>100-106>115-272300-
...SOUTH CENTRAL AND SOUTHEAST MISSOURI...

CITY           SKY/WX    TMP DP  RH WIND       PRES   REMARKS
CAPE GIRARDEAU MOSUNNY   89  74  60 SE6       30.01F HX  98
POPLAR BLUFF   SUNNY     89  70  53 S5        30.00F HX  94
WEST PLAINS    MOSUNNY   85  68  56 S3        30.05F

$$



USA.gov is the U.S. government's official web portal to all federal, state and local government web resources and services.